Flag for U.S.A. Weather past 2 weeks in Plano, Texas, U.S.A.

Now
66 °F

Fog.


Feels Like: 66 °F
Forecast: 65 / 83 °F
Wind: 5 mph from Southwest

Location: McKinney Municipal Airport

Current Time: May 26, 2015 at 9:32:38 AM

Latest Report: May 26, 2015 at 8:53 AM


Visibility: 5 mi

Pressure: 30.01 "Hg

Humidity: 93%

Dew point: 64 °F

Location of PlanoLocation

Historic Weather in Plano — Graph

°F

Plano temperature yesterday

Maximum temperature yesterday: 78 °F (at 1:53 PM)
Minimum temperature yesterday: 63 °F (at 3:53 PM)
Average temperature yesterday: 69 °F

Past Weeks' High & Low Weather Summary

 TemperatureHumidityPressure
High88 °F (May 18, 2:53 PM)100% (May 18, 5:53 AM)30.29 "Hg (May 18, 5:53 AM)
Low55 °F (May 21, 6:53 AM)51% (May 11, 2:53 PM)29.72 "Hg (May 16, 6:53 PM)
Average70 °F84%30.02 "Hg
* Reported May 11 8:53 AM — May 26 8:00 AM, Plano, Weather by CustomWeather, © 2015

Note: Actual official high and low records may vary slightly from our data, if they occured in-between our weather recording intervals... More about our weather records

Advertising

Plano weather history for previous 24 hours

 ConditionsComfort  
Time TempWeatherWind HumidityBarometerVisibility
8:00 AM
Tue, May 26
65 °FFog.8 mph97%29.98 "Hg3 mi
6:53 AM65 °FLow clouds.12 mph94%29.96 "Hg10 mi
6:00 AM65 °FMostly cloudy.12 mph97%29.94 "Hg9 mi
5:00 AM64 °FPassing clouds.10 mph97%29.94 "Hg10 mi
3:53 AM64 °FPassing clouds.8 mph97%29.93 "Hg10 mi
2:53 AM63 °FPassing clouds.9 mph97%29.90 "Hg7 mi
1:53 AM62 °FClear.5 mph96%29.91 "Hg10 mi
12:53 AM63 °FClear.5 mph93%29.90 "Hg10 mi
11:53 PM
Mon, May 25
64 °FClear.9 mph90%29.88 "Hg10 mi
10:53 PM63 °FLight rain. Passing clouds.8 mph97%29.88 "Hg10 mi
10:01 PM64 °FPassing clouds.5 mph94%29.86 "Hg10 mi
8:53 PM64 °FSunny.3 mph94%29.82 "Hg10 mi
7:53 PM63 °FSunny.3 mph97%29.80 "Hg10 mi
6:53 PM63 °FBroken clouds.3 mph97%29.78 "Hg10 mi
5:53 PM64 °FScattered clouds.7 mph94%29.84 "Hg10 mi
4:53 PM64 °FThundershowers. Mostly cloudy.9 mph94%29.90 "Hg10 mi
4:03 PM64 °FThunderstorms. Mostly cloudy.8 mph90%29.88 "Hg7 mi
3:53 PM63 °FStrong thunderstorms. Fog.13 mph93%29.86 "Hg2 mi
2:53 PM78 °FMostly cloudy.13 mph76%29.83 "Hg10 mi
1:53 PM78 °FThundershowers. Broken clouds.20 mph79%29.80 "Hg10 mi
12:53 PM76 °FLight rain. Mostly cloudy.16 mph85%29.89 "Hg10 mi
11:53 AM74 °FMostly cloudy.12 mph91%29.91 "Hg10 mi
10:53 AM75 °FMostly cloudy.14 mph88%29.92 "Hg10 mi
9:53 AM72 °FFog.13 mph97%29.91 "Hg6 mi
Weather by CustomWeather, © 2015

See weather overviewHow to use our weather pages